Home > Time Zones > World Clock > Weather > Egypt > Cairo > Past weeks

Flag for Egypt Weather past 2 weeks in Cairo, Egypt

Now
90 °F

Sunny.


Feels Like: 90 °F
Forecast: 74 / 96 °F
Wind: 8 mph from Northwest

Location: Cairo Airport

Current Time: Jul 25, 2014 at 6:13:51 PM

Latest Report: Jul 25, 2014 at 5:30 PM


Visibility: 10 mi

Pressure: 29.74 "Hg

Humidity: 38%

Dew point: 61 °F

Location of CairoLocation

Historic Weather in Cairo — Graph

°F

Cairo temperature yesterday

Maximum temperature yesterday: 95 °F (at 12:00 PM)
Minimum temperature yesterday: 73 °F (at 5:30 AM)
Average temperature yesterday: 85 °F

Past Weeks' High & Low Weather Summary

 TemperatureHumidityPressure
High102 °F (Jul 12, 1:00 PM)94% (Jul 11, 5:30 AM)29.95 "Hg (Jul 11, 5:30 AM)
Low73 °F (Jul 14, 3:00 AM)11% (Jul 12, 11:00 AM)29.74 "Hg (Jul 10, 5:00 PM)
Average84 °F55%29.83 "Hg
* Reported Jul 10 5:00 PM — Jul 25 5:00 PM, Cairo, Weather by CustomWeather, © 2014

Note: Actual official high and low records may vary slightly from our data, if they occured in-between our weather recording intervals... More about our weather records

Advertising

Cairo weather history for previous 24 hours

 ConditionsComfort  
Time TempWeatherWind HumidityBarometerVisibility
5:00 PM
Jul 25
90 °FSunny.8 mph38%29.74 "Hg10 mi
4:30 PM90 °FSunny.10 mph36%29.74 "Hg10 mi
4:00 PM90 °FSunny.10 mph36%29.74 "Hg10 mi
3:30 PM90 °FSunny.5 mph41%29.74 "Hg10 mi
2:30 PM90 °FSunny.8 mph41%29.74 "Hg10 mi
2:00 PM90 °FSunny.6 mph41%29.74 "Hg10 mi
1:30 PM88 °FSunny.6 mph40%29.74 "Hg10 mi
1:00 PM88 °FSunny.6 mph40%29.77 "Hg10 mi
12:30 PM86 °FSunny.6 mph43%29.77 "Hg10 mi
12:00 PM86 °FSunny.No wind43%29.77 "Hg10 mi
11:30 AM86 °FSunny.6 mph49%29.77 "Hg10 mi
11:00 AM86 °FSunny.3 mph49%29.77 "Hg10 mi
10:30 AM84 °FSunny.5 mph55%29.77 "Hg10 mi
7:30 AM77 °FSunny.No wind74%29.77 "Hg10 mi
7:00 AM77 °FSunny.5 mph74%29.77 "Hg10 mi
6:30 AM75 °FSunny.6 mph78%29.77 "Hg10 mi
6:00 AM75 °FSunny.5 mph78%29.77 "Hg10 mi
5:30 AM75 °FSunny.5 mph74%29.77 "Hg10 mi
5:00 AM75 °FClear.5 mph74%29.77 "Hg10 mi
4:30 AM75 °FClear.5 mph74%29.77 "Hg10 mi
4:00 AM75 °FClear.3 mph74%29.77 "Hg10 mi
3:30 AM75 °FClear.5 mph74%29.77 "Hg10 mi
3:00 AM77 °FClear.5 mph69%29.77 "Hg10 mi
2:30 AM77 °FClear.5 mph69%29.77 "Hg10 mi
2:00 AM77 °FClear.6 mph69%29.77 "Hg10 mi
1:30 AM79 °FClear.7 mph65%29.77 "Hg10 mi
1:00 AM79 °FClear.7 mph65%29.77 "Hg10 mi
12:30 AM79 °FClear.7 mph70%29.80 "Hg10 mi
12:00 AM79 °FClear.7 mph70%29.80 "Hg10 mi
11:30 PM
Jul 24
79 °FClear.10 mph70%29.80 "Hg10 mi
11:00 PM79 °FClear.10 mph70%29.83 "Hg10 mi
10:30 PM81 °FClear.9 mph70%29.83 "Hg10 mi
10:00 PM81 °FClear.9 mph70%29.83 "Hg10 mi
9:30 PM84 °FClear.9 mph62%29.80 "Hg10 mi
9:00 PM84 °FClear.9 mph62%29.80 "Hg10 mi
8:30 PM84 °FClear.9 mph66%29.80 "Hg10 mi
8:00 PM86 °FClear.9 mph62%29.80 "Hg10 mi
7:30 PM88 °FClear.9 mph59%29.80 "Hg10 mi
7:00 PM90 °FClear.10 mph43%29.77 "Hg10 mi
6:30 PM90 °FSunny.9 mph41%29.77 "Hg10 mi
6:00 PM90 °FSunny.10 mph46%29.77 "Hg10 mi
Weather by CustomWeather, © 2014

See weather overviewHow to use our weather pages